Fremont, MI

5:39 AM EDT on August 18, 2019 (GMT -0400)
Fremont

Weather History for KFFX - May, 2019

Change the Weather History Date:

Sunday, May 5, 2019

  Actual Average (KMKG) Record (KMKG)
Temperature  
Mean Temperature 54 °F -  
Max Temperature 70 °F 62 °F 88 °F (1959)
Min Temperature 38 °F 41 °F 27 °F (1979)
Degree Days  
Heating Degree Days 11    
Growing Degree Days 4 (Base 50)    
Moisture  
Dew Point 40 °F    
Average Humidity 62    
Maximum Humidity 100    
Minimum Humidity 33    
Precipitation  
Precipitation 0.00 in - - ()
Sea Level Pressure  
Sea Level Pressure 29.87 in    
Wind  
Wind Speed 3 mph (SW)    
Max Wind Speed 14 mph    
Max Gust Speed 20 mph    
Visibility 10 miles    
Events      
Averages and records for this station are not official NWS values.
T = Trace of Precipitation, MM = Missing Value Source: NWS Daily Summary

Daily Weather History Graph

Daily Weather History Graph

Search for Another Location

Airport or City:

Astronomy

May. 05, 2019 Rise Set
Actual Time 6:31 AM EDT 8:50 PM EDT
Civil Twilight 5:59 AM EDT 9:22 PM EDT
Nautical Twilight 5:20 AM EDT 10:01 PM EDT
Astronomical Twilight 4:36 AM EDT 10:45 PM EDT
Moon 7:17 AM EDT (5/5) 9:42 PM EDT (5/5)
Length of Visible Light 15h 22m
Length of Day
14h 18m
New Moon, 1% of the Moon is Illuminated
May 5
New Moon
May 11
First Quarter
May 18
Full
May 26
Last Quarter
Jun 3
New

Hourly Weather History & Observations

Time (EDT) Temp. Windchill Dew Point Humidity Pressure Visibility Wind Dir Wind Speed Gust Speed Precip Events Conditions
12:15 AM 45.9 °F - 37.6 °F 73% 29.89 in 10.0 mi Calm Calm - N/A   Clear
12:35 AM 44.8 °F - 39.7 °F 82% 29.89 in 10.0 mi Calm Calm - N/A   Clear
12:56 AM 45.5 °F - 39.4 °F 79% 29.89 in 10.0 mi Calm Calm - N/A   Clear
1:15 AM 44.6 °F - 39.9 °F 84% 29.89 in 10.0 mi Calm Calm - N/A   Clear
1:35 AM 42.8 °F - 37.8 °F 82% 29.90 in 10.0 mi Calm Calm - N/A   Clear
1:56 AM 42.4 °F - 38.5 °F 86% 29.90 in 10.0 mi Calm Calm - N/A   Clear
2:16 AM 41.9 °F - 38.7 °F 88% 29.89 in 10.0 mi Calm Calm - N/A   Clear
2:35 AM 41.0 °F 39.0 °F 39.9 °F 96% 29.89 in 10.0 mi East 3.5 mph - N/A   Clear
2:56 AM 40.8 °F - 40.3 °F 98% 29.88 in 10.0 mi Calm Calm - N/A   Clear
3:16 AM 40.3 °F - 39.4 °F 97% 29.88 in 10.0 mi Calm Calm - N/A   Clear
3:35 AM 40.6 °F - 40.1 °F 98% 29.89 in 10.0 mi Calm Calm - N/A   Clear
3:56 AM 40.8 °F - 40.6 °F 99% 29.89 in 10.0 mi Calm Calm - N/A   Clear
4:16 AM 40.8 °F - 40.6 °F 99% 29.89 in 10.0 mi Calm Calm - N/A   Clear
4:35 AM 39.2 °F - 38.5 °F 97% 29.90 in 10.0 mi Calm Calm - N/A   Clear
4:55 AM 39.6 °F - 38.8 °F 97% 29.91 in 10.0 mi Calm Calm - N/A   Clear
5:16 AM 39.2 °F - 38.7 °F 98% 29.89 in 10.0 mi Calm Calm - N/A   Clear
5:36 AM 39.2 °F - 39.0 °F 99% 29.89 in 7.0 mi Calm Calm - N/A   Clear
5:55 AM 39.2 °F - 39.0 °F 99% 29.89 in 7.0 mi Calm Calm - N/A   Clear
6:15 AM 39.4 °F - 39.2 °F 99% 29.89 in 7.0 mi Calm Calm - N/A   Clear
6:36 AM 38.7 °F - 38.5 °F 99% 29.89 in 10.0 mi Calm Calm - N/A   Clear
6:55 AM 38.5 °F 36.1 °F 38.5 °F 100% 29.89 in 7.0 mi ESE 3.5 mph - N/A   Clear
7:15 AM 38.7 °F - 38.7 °F 100% 29.89 in 5.0 mi Calm Calm - N/A   Clear
7:35 AM 40.3 °F - 40.3 °F 100% 29.89 in 7.0 mi Calm Calm - N/A   Clear
7:56 AM 42.6 °F - 42.3 °F 99% 29.90 in 10.0 mi Calm Calm - N/A   Clear
8:15 AM 45.0 °F 43.5 °F 42.1 °F 90% 29.90 in 10.0 mi SSW 3.5 mph - N/A   Clear
8:35 AM 47.1 °F - 39.9 °F 76% 29.90 in 10.0 mi South 3.5 mph - N/A   Clear
8:56 AM 49.8 °F - 39.7 °F 68% 29.89 in 10.0 mi SSW 3.5 mph - N/A   Clear
9:15 AM 52.3 °F - 39.6 °F 62% 29.89 in 10.0 mi South 3.5 mph - N/A   Clear
9:35 AM 55.6 °F - 39.7 °F 55% 29.89 in 10.0 mi Calm Calm - N/A   Clear
9:55 AM 58.1 °F - 39.6 °F 50% 29.88 in 10.0 mi WSW 4.6 mph - N/A   Clear
10:16 AM 60.1 °F - 41.4 °F 50% 29.88 in 10.0 mi WSW 3.5 mph - N/A   Clear
10:36 AM 61.9 °F - 42.3 °F 49% 29.88 in 10.0 mi WSW 5.8 mph - N/A   Clear
10:55 AM 63.1 °F - 41.9 °F 46% 29.88 in 10.0 mi WSW 5.8 mph - N/A   Clear
11:15 AM 64.6 °F - 41.4 °F 43% 29.87 in 10.0 mi West 3.5 mph - N/A   Clear
11:35 AM 66.4 °F - 41.5 °F 40% 29.87 in 10.0 mi SW 8.1 mph - N/A   Clear
11:55 AM 68.4 °F - 42.6 °F 39% 29.87 in 10.0 mi West 12.7 mph - N/A   Clear
12:16 PM 68.2 °F - 41.7 °F 38% 29.87 in 10.0 mi West 9.2 mph - N/A   Clear
12:35 PM 68.9 °F - 41.5 °F 37% 29.87 in 10.0 mi WSW 10.4 mph - N/A   Clear
12:55 PM 69.8 °F - 40.8 °F 35% 29.87 in 10.0 mi West 10.4 mph 19.6 mph N/A   Clear
1:16 PM 69.3 °F - 41.2 °F 36% 29.87 in 10.0 mi WSW 11.5 mph 18.4 mph N/A   Scattered Clouds
1:36 PM 69.6 °F - 40.5 °F 35% 29.87 in 10.0 mi WSW 10.4 mph - N/A   Scattered Clouds
1:55 PM 70.0 °F - 39.9 °F 33% 29.86 in 10.0 mi West 12.7 mph 17.3 mph N/A   Scattered Clouds
2:36 PM 69.6 °F - 41.2 °F 36% 29.85 in 10.0 mi SW 11.5 mph - N/A   Clear
2:55 PM 68.7 °F - 40.3 °F 35% 29.85 in 10.0 mi West 11.5 mph - N/A   Scattered Clouds
3:16 PM 70.3 °F - 40.6 °F 34% 29.85 in 10.0 mi WSW 12.7 mph 18.4 mph N/A   Scattered Clouds
3:36 PM 69.8 °F - 40.5 °F 34% 29.84 in 10.0 mi SW 13.8 mph - N/A   Clear
3:56 PM 70.3 °F - 40.6 °F 34% 29.84 in 10.0 mi WSW 12.7 mph 18.4 mph N/A   Clear
4:15 PM 69.4 °F - 39.4 °F 33% 29.84 in 10.0 mi WSW 11.5 mph 16.1 mph N/A   Clear
4:36 PM 69.4 °F - 38.8 °F 33% 29.84 in 10.0 mi WSW 11.5 mph 18.4 mph N/A   Clear
4:55 PM 68.9 °F - 40.3 °F 35% 29.84 in 10.0 mi WSW 6.9 mph 16.1 mph N/A   Clear
5:15 PM 69.4 °F - 40.8 °F 35% 29.83 in 10.0 mi WSW 9.2 mph - N/A   Clear
5:36 PM 69.4 °F - 40.6 °F 35% 29.83 in 10.0 mi WSW 11.5 mph - N/A   Clear
5:55 PM 68.7 °F - 40.1 °F 35% 29.83 in 10.0 mi SW 9.2 mph - N/A   Clear
6:15 PM 68.5 °F - 39.6 °F 35% 29.83 in 10.0 mi SW 11.5 mph - N/A   Clear
6:36 PM 68.7 °F - 39.9 °F 35% 29.82 in 10.0 mi SSW 10.4 mph - N/A   Clear
6:56 PM 67.6 °F - 40.3 °F 37% 29.82 in 10.0 mi SSW 11.5 mph - N/A   Clear
7:16 PM 67.3 °F - 40.1 °F 37% 29.82 in 10.0 mi SSW 9.2 mph - N/A   Clear
7:35 PM 67.1 °F - 40.1 °F 37% 29.82 in 10.0 mi SW 9.2 mph - N/A   Clear
7:55 PM 66.2 °F - 40.3 °F 39% 29.83 in 10.0 mi WSW 6.9 mph - N/A   Clear
8:16 PM 64.4 °F - 41.2 °F 43% 29.83 in 10.0 mi SW 5.8 mph - N/A   Clear
8:35 PM 62.2 °F - 42.1 °F 48% 29.84 in 10.0 mi SW 6.9 mph - N/A   Clear
8:55 PM 59.5 °F - 43.5 °F 55% 29.84 in 10.0 mi SSW 4.6 mph - N/A   Clear
9:16 PM 59.0 °F - 42.8 °F 55% 29.85 in 10.0 mi SSW 3.5 mph - N/A   Clear
9:36 PM 59.5 °F - 42.3 °F 53% 29.86 in 10.0 mi Calm Calm - N/A   Clear
9:56 PM 59.4 °F - 41.7 °F 52% 29.86 in 10.0 mi Calm Calm - N/A   Clear
10:16 PM 58.1 °F - 41.9 °F 55% 29.87 in 10.0 mi Calm Calm - N/A   Clear
10:35 PM 57.2 °F - 41.9 °F 57% 29.87 in 10.0 mi Calm Calm - N/A   Clear
10:56 PM 57.4 °F - 41.4 °F 55% 29.86 in 10.0 mi Calm Calm - N/A   Clear
11:16 PM 57.6 °F - 41.0 °F 54% 29.86 in 10.0 mi South 3.5 mph - N/A   Clear
11:35 PM 57.4 °F - 41.4 °F 55% 29.85 in 10.0 mi SSE 3.5 mph - N/A   Clear
11:55 PM 55.6 °F - 42.6 °F 62% 29.86 in 10.0 mi SW 3.5 mph - N/A   Mostly Cloudy